Regional Weather Roundup
Issued by NWS Jackson, KY

Home | Current Version | Previous Version | Graphics & Text | Print | Product List | Glossary On
Versions: 1 2 3 4 5 6 7 8 9 10 11 12 13 14 15 16 17 18 19 20 21 22 23 24 25 26 27
000
ASUS43 KJKL 232110
RWRJKL

EAST KENTUCKY HOURLY WEATHER ROUNDUP
NATIONAL WEATHER SERVICE JACKSON KY
500 PM EDT THU MAR 23 2017

NOTE: "FAIR" INDICATES FEW OR NO CLOUDS BELOW 12,000 FEET WITH
NO SIGNIFICANT WEATHER AND/OR OBSTRUCTIONS TO VISIBILITY.

* THESE REPORTS ARE NOT UNDER NWS QUALITY CONTROL AND MAY NOT
  REPORT WEATHER SUCH AS PRECIPITATION AND FOG.

KYZ079-080-083-085-087-088-110-112-115-119-120-232200
...EASTERN KENTUCKY...

CITY           SKY/WX    TMP DP  RH WIND       PRES   REMARKS
JACKSON        SUNNY     67  28  23 VRB3      30.30F
LONDON         MOSUNNY   65  27  23 S7        30.30F
SOMERSET*      MOSUNNY   64  30  27 CALM      30.29F
MONTICELLO*    PTSUNNY   67  36  31 NW10      30.29F
WILLIAMSBURG*  PTCLDY    66  32  28 SE10      30.30F
MIDDLESBORO*   MOSUNNY   64  33  31 S8        30.34F
HARLAN APT*    CLEAR     64  27  24 S3        30.32F
PIKE CO APT*     N/A     64  29  26 CALM      30.31F
BIG SANDY APT* CLEAR     65  29  26 CALM      30.31F
MOREHEAD APT*  CLEAR     63  25  23 VRB6G13   30.32F
ASHLAND*       SUNNY     61  30  31 E3        30.31F
$$

KYZ035-036-041-042-044-050-067-078-099-232200
...CENTRAL KENTUCKY...

CITY           SKY/WX    TMP DP  RH WIND       PRES   REMARKS
MT STERLING*   SUNNY     63  32  31 SW5       30.31F
FLEMING/MASON* SUNNY     60  29  30 S9        30.31F
DANVILLE*      MOSUNNY   63  34  34 S5        30.29F
LEXINGTON      PTSUNNY   62  28  27 S8        30.28F
FRANKFORT      SUNNY     63  27  25 S6        30.27F
LOUISVILLE     CLOUDY    62  27  26 S12       30.25F
LEBANON*         N/A     63  34  34 S8        30.28F
GLASGOW*       LGT RAIN  58  41  54 SW6       30.27F
BOWLING GREEN  CLOUDY    55  45  68 E5        30.27F
$$

KYZ091>093-OHZ055-061-077-WVZ005-015-034-035-042-232200
...SOUTHERN OHIO/WEST VIRGINIA...

CITY           SKY/WX    TMP DP  RH WIND       PRES   REMARKS
COVINGTON      MOSUNNY   59  24  26 S10       30.26F
COLUMBUS       MOSUNNY   54  11  18 SE12      30.33F
DAYTON         PTSUNNY   52  24  33 SE14      30.29F
WILMINGTON     SUNNY     55  26  32 S9        30.29F
HUNTINGTON     SUNNY     62  24  23 MISG      30.32F
CHARLESTON     SUNNY     63  22  20 W3        30.33F
PINEVILLE*     SUNNY     65  11  12 MISG      30.38F
BECKLEY        SUNNY     55  21  26 SE14      30.35F
BLUEFIELD      SUNNY     53  19  26 MISG      30.37F
LOGAN CO APT*    N/A     63  25  23 CALM      30.32F
$$

VAZ002-007-008-TNZ017-027-036-066-071-232200
...SOUTHWEST VIRGINIA/EAST TENNESSEE...

CITY           SKY/WX    TMP DP  RH WIND       PRES   REMARKS
WISE*          SUNNY     61  27  27 CALM      30.35F
JONESVILLE*      N/A     64  28  25 SW8       30.36S
ABINGDON*      SUNNY     64  27  25 SW9       30.35F
BRISTOL        MOSUNNY   63  31  30 SW6       30.35F
MORRISTOWN*    CLEAR     64  30  27 VRB5      30.33F
SEVIERVILLE*   CLEAR     66  34  30 N5        30.32F
KNOXVILLE      PTSUNNY   66  38  35 SW12      30.32F
LAFOLLETTE*    CLEAR     66  37  34 S8G15     30.34F
OAK RIDGE      MOSUNNY   67  36  31 VRB6      30.34F
CROSSVILLE     CLOUDY    59  34  39 VRB7      30.33S
NASHVILLE      PTSUNNY   67  41  38 E5        30.25F
$$

...KEY TO REMARKS...
VSB - VISIBILITY IN MILES
WCI - WIND CHILL INDEX
HX  - HEAT INDEX

$$




USA.gov is the U.S. government's official web portal to all federal, state and local government web resources and services.